GW3746 Weather Reports


Display with metric or nautical units.
time (UTC)temp
F
wind
direction
speed
MPH
gust
MPH
rain 1hr
in
rain 24hr
in
rain mn
in
humidity
%
barometer
mb
20260906200311 86 164 3.0 6.0 0.00 0.41 0.41 64 1003.5
20260906195806 86 205 4.0 8.0 0.00 0.41 0.41 64 1003.8
20260906195306 86 187 2.0 7.0 0.00 0.41 0.41 63 1003.5
20260906194758 86 167 2.0 9.0 0.00 0.41 0.41 62 1003.8
20260906194254 87 118 3.0 6.0 0.00 0.41 0.41 60 1003.5
20260906193748 87 214 5.0 8.0 0.00 0.41 0.41 60 1003.5
20260906193244 87 228 2.0 7.0 0.00 0.41 0.41 61 1003.5
20260906192740 88 200 5.0 8.0 0.00 0.41 0.41 60 1003.5
20260906192239 87 214 2.0 7.0 0.00 0.41 0.41 60 1003.5
20260906191738 87 204 3.0 13.0 0.00 0.41 0.41 62 1003.4
20260906191233 87 211 5.0 8.0 0.00 0.41 0.41 59 1003.3
20260906190727 87 236 6.0 9.0 0.00 0.41 0.41 59 1003.6
20260906190222 89 183 7.0 15.0 0.00 0.41 0.41 59 1003.5
20260906185721 87 233 4.0 11.0 0.00 0.41 0.41 60 1003.5
20260906185220 87 241 6.0 13.0 0.00 0.41 0.41 59 1003.5
20260906184715 87 233 4.0 11.0 0.00 0.41 0.41 59 1003.3
20260906184210 86 219 4.0 7.0 0.00 0.41 0.41 61 1003.4
20260906183706 86 231 6.0 10.0 0.00 0.41 0.41 60 1003.6
20260906183202 88 213 6.0 8.0 0.00 0.41 0.41 58 1003.8
20260906182702 89 169 7.0 14.0 0.00 0.41 0.41 57 1003.8
20260906182158 88 242 4.0 9.0 0.00 0.41 0.41 58 1003.8
20260906181653 86 198 8.0 10.0 0.00 0.41 0.41 59 1003.8
20260906181149 86 204 8.0 16.0 0.00 0.41 0.41 60 1003.8
20260906180644 86 193 6.0 9.0 0.00 0.41 0.41 60 1003.6
20260906180139 87 231 4.0 14.0 0.00 0.41 0.41 59 1003.8
20260906175637 87 172 5.0 9.0 0.00 0.41 0.41 58 1003.8
20260906175132 86 209 9.0 14.0 0.00 0.41 0.41 59 1003.6
20260906174630 87 209 3.0 11.0 0.00 0.41 0.41 58 1003.8
20260906174125 86 218 2.0 6.0 0.00 0.41 0.41 59 1003.6
20260906173620 86 215 4.0 11.0 0.00 0.41 0.41 57 1003.5
20260906173116 86 248 5.0 11.0 0.00 0.41 0.41 59 1003.8
20260906172615 86 135 6.0 9.0 0.00 0.41 0.41 57 1003.5
20260906172111 86 181 8.0 10.0 0.00 0.41 0.41 57 1003.5
20260906171610 85 213 6.0 9.0 0.00 0.41 0.41 57 1003.4
20260906171107 85 144 4.0 15.0 0.00 0.41 0.41 57 1003.5
20260906170603 85 213 4.0 8.0 0.00 0.41 0.41 56 1003.4
20260906165558 84 244 3.0 9.0 0.00 0.41 0.41 56 1003.3
20260906165053 84 212 7.0 11.0 0.00 0.41 0.41 54 1003.3
20260906164552 84 200 3.0 8.0 0.00 0.41 0.41 55 1003.2
20260906164048 83 212 3.0 8.0 0.00 0.41 0.41 56 1003.2
20260906163543 82 210 2.0 8.0 0.00 0.41 0.41 58 1003.3
20260906163038 82 200 6.0 10.0 0.00 0.41 0.41 55 1003.2
20260906162535 81 241 6.0 11.0 0.00 0.41 0.41 55 1003.2
20260906162031 81 239 4.0 8.0 0.00 0.41 0.41 56 1003.2
20260906161526 80 208 10.0 17.0 0.00 0.41 0.41 55 1003.2
20260906161025 78 157 5.0 13.0 0.00 0.41 0.41 61 1003.1
20260906160524 78 234 4.0 8.0 0.00 0.41 0.41 61 1003.4
20260906160023 77 92 2.0 4.0 0.00 0.41 0.41 63 1003.1
20260906155521 77 231 0.0 2.0 0.00 0.41 0.41 66 1003.1
20260906155017 77 254 0.0 1.0 0.00 0.41 0.41 65 1003.4
20260906154512 77 187 1.0 2.0 0.00 0.41 0.41 64 1003.4
20260906154010 77 254 1.0 2.0 0.00 0.41 0.41 64 1003.0
20260906153509 77 191 2.0 4.0 0.00 0.41 0.41 62 1002.9
20260906153004 77 222 2.0 9.0 0.00 0.41 0.41 62 1003.1
20260906152459 77 217 2.0 11.0 0.00 0.41 0.41 63 1003.1
20260906151958 77 239 4.0 13.0 0.00 0.41 0.41 61 1003.0
20260906151454 76 242 6.0 14.0 0.00 0.41 0.41 62 1002.7
20260906150949 75 127 6.0 14.0 0.00 0.41 0.41 65 1002.0
20260906150444 75 156 4.0 9.0 0.00 0.41 0.41 67 1002.3
20260906145944 75 133 5.0 13.0 0.00 0.41 0.41 68 1002.8
20260906145443 73 215 6.0 15.0 0.00 0.41 0.41 71 1003.2
20260906144932 73 191 12.0 15.0 0.00 0.41 0.41 76 1003.5
20260906144427 72 161 2.0 10.0 0.00 0.41 0.41 79 1003.5
20260906143923 71 165 4.0 14.0 0.00 0.41 0.41 81 1003.4
20260906143418 71 187 3.0 13.0 0.00 0.41 0.41 85 1004.2
20260906142914 69 246 10.0 13.0 0.00 0.41 0.41 86 1004.4
20260906142414 67 252 9.0 19.0 0.00 0.41 0.41 99 1003.5
20260906141914 67 208 4.0 8.0 0.00 0.41 0.41 99 1003.4
20260906141408 67 208 4.0 9.0 0.00 0.41 0.41 99 1004.8
20260906140908 67 187 6.0 13.0 0.00 0.41 0.41 99 1005.1
20260906140402 67 193 7.0 9.0 0.05 0.41 0.41 99 1005.5
20260906135900 67 196 5.0 8.0 0.12 0.41 0.41 99 1005.6
20260906135354 66 206 5.0 8.0 0.14 0.40 0.40 99 1006.0
20260906134850 66 231 4.0 8.0 0.19 0.39 0.39 99 1006.3
20260906134345 66 202 1.0 7.0 0.24 0.38 0.38 99 1006.5
20260906133841 66 283 1.0 6.0 0.24 0.36 0.36 99 1006.8
20260906133336 67 296 4.0 10.0 0.24 0.34 0.34 99 1007.1
20260906132832 67 255 9.0 16.0 0.17 0.32 0.32 99 1006.7
20260906132326 67 302 7.0 11.0 0.12 0.30 0.30 99 1006.4
20260906131822 67 276 6.0 10.0 0.12 0.29 0.29 99 1005.9
20260906131317 67 306 6.0 15.0 0.05 0.28 0.28 99 1005.7
20260906130813 67 295 8.0 13.0 0.07 0.27 0.27 99 1005.7
20260906130313 67 287 7.0 13.0 0.14 0.27 0.27 99 1005.7
20260906125811 67 299 5.0 10.0 0.19 0.26 0.26 99 1006.2
20260906125306 67 312 1.0 4.0 0.17 0.25 0.25 99 1006.4
20260906124758 67 281 0.0 3.0 0.05 0.23 0.23 99 1006.6
20260906124255 67 320 4.0 4.0 0.07 0.22 0.22 99 1006.5
20260906123753 67 316 4.0 8.0 0.12 0.22 0.22 99 1006.3
20260906123248 67 320 4.0 8.0 0.05 0.21 0.21 99 1006.5
20260906122748 67 315 5.0 7.0 0.07 0.20 0.20 99 1006.4
20260906122243 67 305 5.0 7.0 0.12 0.19 0.19 99 1006.5
20260906121739 67 297 3.0 8.0 0.12 0.18 0.18 99 1006.3
20260906121236 67 344 4.0 10.0 0.12 0.17 0.17 99 1006.7
20260906120731 67 294 3.0 7.0 0.19 0.16 0.16 99 1006.5
20260906120228 67 334 2.0 7.0 0.14 0.14 0.14 99 1006.2
20260906115723 67 310 3.0 7.0 0.12 0.13 0.13 98 1005.9
20260906115218 67 331 10.0 13.0 0.12 0.12 0.12 98 1006.1
20260906114717 68 314 9.0 10.0 0.12 0.11 0.11 97 1006.2
20260906114213 68 317 4.0 10.0 0.28 0.10 0.10 97 1006.3
20260906113708 68 263 5.0 14.0 0.24 0.08 0.08 96 1006.0
20260906113207 68 317 6.0 13.0 0.12 0.05 0.05 95 1006.2
20260906112706 69 275 8.0 13.0 0.17 0.04 0.04 94 1006.1
20260906112203 69 315 6.0 13.0 0.05 0.02 0.02 93 1006.1
20260906111657 69 287 6.0 13.0 0.07 0.01 0.01 93 1006.2
20260906111152 70 294 8.0 13.0 0.07 0.01 0.01 91 1006.0
20260906110647 71 326 7.0 14.0 0.00 0.00 0.00 89 1005.7
20260906110142 71 316 6.0 8.0 0.00 0.00 0.00 87 1005.6
20260906105636 72 295 7.0 13.0 0.00 0.00 0.00 86 1005.0
20260906105133 72 329 11.0 17.0 0.00 0.00 0.00 85 1004.9
20260906104631 73 316 11.0 15.0 0.00 0.00 0.00 83 1004.8
20260906104130 73 320 9.0 15.0 0.00 0.00 0.00 82 1004.6
20260906103629 73 339 8.0 11.0 0.00 0.00 0.00 82 1004.3
20260906103124 74 332 9.0 13.0 0.00 0.00 0.00 80 1004.1
20260906102619 74 333 12.0 15.0 0.00 0.00 0.00 80 1004.3
20260906102114 74 1 8.0 14.0 0.00 0.00 0.00 79 1004.3
20260906101614 75 332 9.0 11.0 0.00 0.00 0.00 79 1004.3
20260906101114 75 350 8.0 11.0 0.00 0.00 0.00 79 1004.2
20260906100610 75 328 9.0 14.0 0.00 0.00 0.00 79 1004.1
20260906100110 76 342 8.0 15.0 0.00 0.00 0.00 78 1004.0
20260906095610 76 314 11.0 11.0 0.00 0.00 0.00 79 1004.1
20260906095105 76 311 7.0 9.0 0.00 0.00 0.00 83 1004.3
20260906094604 75 306 2.0 8.0 0.00 0.00 0.00 82 1004.0
20260906094100 74 288 8.0 15.0 0.00 0.00 0.00 86 1004.4
20260906093556 73 272 0.0 0.0 0.00 0.00 0.00 88 1003.1
20260906093051 73 266 0.0 0.0 0.00 0.00 0.00 88 1003.0
20260906092546 73 268 0.0 0.0 0.00 0.00 0.00 88 1002.9
20260906092041 73 280 0.0 0.0 0.00 0.00 0.00 87 1002.8
20260906091537 73 250 0.0 0.0 0.00 0.00 0.00 87 1002.9
20260906091033 73 256 0.0 0.0 0.00 0.00 0.00 88 1002.7
20260906090533 73 224 0.0 0.0 0.00 0.00 0.00 88 1002.8
20260906090028 73 229 0.0 0.0 0.00 0.00 0.00 88 1002.7
20260906085527 73 258 0.0 0.0 0.00 0.00 0.00 89 1002.6
20260906085027 74 220 0.0 0.0 0.00 0.00 0.00 88 1002.7
20260906084522 74 207 0.0 0.0 0.00 0.00 0.00 88 1002.6
20260906084020 74 202 0.0 0.0 0.00 0.00 0.00 87 1002.7
20260906083517 74 216 0.0 0.0 0.00 0.00 0.00 86 1002.6
20260906083016 74 233 0.0 0.0 0.00 0.00 0.00 87 1002.6
20260906082511 74 239 0.0 0.0 0.00 0.00 0.00 88 1002.7
20260906082007 74 227 0.0 0.0 0.00 0.00 0.00 89 1002.6
20260906081503 74 236 0.0 0.0 0.00 0.00 0.00 88 1002.5
20260906080958 74 252 0.0 0.0 0.00 0.00 0.00 87 1002.6
20260906080455 75 236 0.0 0.0 0.00 0.00 0.00 87 1002.6
20260906075955 75 244 0.0 0.0 0.00 0.00 0.00 86 1002.8
20260906075449 75 235 0.0 0.0 0.00 0.00 0.00 86 1002.9
20260906074944 75 236 0.0 0.0 0.00 0.00 0.00 86 1002.7
20260906074439 75 244 0.0 0.0 0.00 0.00 0.00 87 1002.9
20260906073937 75 249 0.0 0.0 0.00 0.00 0.00 87 1002.8
20260906073432 75 249 0.0 0.0 0.00 0.00 0.00 87 1002.8
20260906072929 75 251 0.0 0.0 0.00 0.00 0.00 88 1002.9
20260906072424 74 250 0.0 0.0 0.00 0.00 0.00 90 1002.7
20260906071919 73 250 0.0 0.0 0.00 0.00 0.00 92 1002.9
20260906071415 73 250 0.0 0.0 0.00 0.00 0.00 92 1002.8
20260906070911 73 250 0.0 0.0 0.00 0.00 0.00 93 1003.0
20260906070406 73 250 0.0 0.0 0.00 0.00 0.00 93 1002.9
20260906065856 73 250 0.0 0.0 0.00 0.00 0.00 93 1002.8
20260906065350 73 250 0.0 0.0 0.00 0.00 0.00 93 1003.0
20260906064846 73 252 0.0 0.0 0.00 0.00 0.00 93 1002.8
20260906064337 73 255 0.0 0.0 0.00 0.00 0.00 94 1002.8
20260906063836 73 255 0.0 0.0 0.00 0.00 0.00 93 1002.8
20260906063332 74 255 0.0 0.0 0.00 0.00 0.00 93 1002.7
20260906062827 74 255 0.0 0.0 0.00 0.00 0.00 92 1002.8
20260906062326 74 256 0.0 0.0 0.00 0.00 0.00 92 1002.8
20260906061821 74 256 0.0 0.0 0.00 0.00 0.00 91 1002.8
20260906061318 75 255 0.0 0.0 0.00 0.00 0.00 91 1002.6
20260906060812 75 252 0.0 0.0 0.00 0.00 0.00 90 1002.7
20260906060310 75 250 0.0 0.0 0.00 0.00 0.00 90 1002.7
20260906055806 75 263 0.0 0.0 0.00 0.00 0.00 89 1002.7
20260906055301 75 249 0.0 0.0 0.00 0.00 0.00 89 1002.7
20260906054756 76 234 0.0 0.0 0.00 0.00 0.00 89 1002.7
20260906054251 76 228 0.0 0.0 0.00 0.00 0.00 89 1002.8
20260906053748 76 232 0.0 0.0 0.00 0.00 0.00 89 1002.7
20260906053243 76 247 0.0 0.0 0.00 0.00 0.00 89 1002.7
20260906052738 75 250 0.0 0.0 0.00 0.00 0.00 90 1003.0
20260906052234 76 252 0.0 0.0 0.00 0.00 0.00 90 1002.9
20260906051731 76 249 0.0 0.0 0.00 0.00 0.00 90 1003.0
20260906051231 76 240 0.0 0.0 0.00 0.00 0.00 91 1002.9
20260906050726 76 250 0.0 0.0 0.00 0.00 0.00 91 1003.2
20260906050221 76 240 0.0 0.0 0.00 0.00 0.00 90 1003.0
20260906045720 75 250 0.0 0.0 0.00 0.00 0.00 91 1003.2
20260906045215 76 251 0.0 0.0 0.00 0.00 0.00 91 1002.8
20260906044711 76 251 0.0 0.0 0.00 0.00 0.00 91 1003.1
20260906044206 76 250 0.0 0.0 0.00 0.00 0.00 90 1003.1
20260906043702 77 255 0.0 0.0 0.00 0.00 0.00 90 1002.9
20260906043157 77 256 0.0 0.0 0.00 0.00 0.00 89 1003.0
20260906042657 77 262 0.0 0.0 0.00 0.00 0.00 87 1003.1
20260906042156 78 271 0.0 0.0 0.00 0.00 0.00 86 1003.1
20260906041652 78 265 0.0 0.0 0.00 0.00 0.00 85 1003.0
20260906041147 79 263 0.0 0.0 0.00 0.00 0.00 83 1003.1
20260906040642 79 286 0.0 0.0 0.00 0.00 0.00 82 1002.9
20260906040138 79 247 0.0 0.0 0.00 0.00 0.00 82 1002.8
20260906035633 79 221 0.0 0.0 0.00 0.00 0.00 83 1002.9
20260906035130 79 243 0.0 0.0 0.00 0.00 0.00 84 1002.6
20260906034629 79 254 0.0 0.0 0.00 0.00 0.00 85 1002.7
20260906034124 78 246 0.0 0.0 0.00 0.00 0.00 85 1002.7
20260906033620 79 250 0.0 0.0 0.00 0.00 0.00 86 1002.8
20260906033114 79 250 0.0 0.0 0.00 0.00 0.00 85 1002.7
20260906032611 79 248 0.0 0.0 0.00 0.00 0.00 85 1002.7
20260906032111 79 257 0.0 0.0 0.00 0.00 0.00 86 1002.5
20260906031606 80 241 0.0 0.0 0.00 0.00 0.00 85 1002.5
20260906031102 80 256 0.0 0.0 0.00 0.00 0.00 85 1002.4
20260906030601 80 256 0.0 0.0 0.00 0.00 0.00 85 1002.3
20260906030055 80 207 0.0 0.0 0.00 0.00 0.00 84 1002.5
20260906025550 80 224 0.0 0.0 0.00 0.00 0.00 85 1002.4
20260906025048 79 232 0.0 0.0 0.00 0.00 0.00 85 1002.2
20260906024543 80 253 0.0 0.0 0.00 0.00 0.00 85 1002.4
20260906024038 80 253 0.0 0.0 0.00 0.00 0.00 84 1002.3
20260906023534 80 250 0.0 0.0 0.00 0.00 0.00 83 1002.3
20260906023029 81 220 0.0 0.0 0.00 0.00 0.00 83 1002.0
20260906022524 80 224 0.0 0.0 0.00 0.00 0.00 84 1001.9
20260906022019 80 256 0.0 0.0 0.00 0.00 0.00 84 1002.0
20260906021514 81 252 0.0 0.0 0.00 0.00 0.00 84 1002.2
20260906021009 81 263 0.0 0.0 0.00 0.00 0.00 85 1001.7
20260906020508 81 255 0.0 0.0 0.00 0.00 0.00 84 1001.6
20260906020008 81 238 0.0 0.0 0.00 0.00 0.00 84 1001.7
20260906015506 82 255 0.0 0.0 0.00 0.00 0.00 83 1001.7
20260906015001 81 261 0.0 2.0 0.00 0.00 0.00 83 1001.7
20260906014501 81 206 0.0 0.0 0.00 0.00 0.00 84 1001.7
20260906013951 81 260 0.0 0.0 0.00 0.00 0.00 84 1001.7
20260906013447 81 267 0.0 0.0 0.00 0.00 0.00 84 1001.6
20260906012942 81 256 0.0 0.0 0.00 0.00 0.00 84 1001.4
20260906012437 82 260 0.0 0.0 0.00 0.00 0.00 83 1001.4
20260906011936 82 268 0.0 0.0 0.00 0.00 0.00 82 1001.4
20260906011432 82 261 0.0 0.0 0.00 0.00 0.00 82 1001.4
20260906010927 83 266 0.0 0.0 0.00 0.00 0.00 81 1001.4
20260906010422 83 269 0.0 0.0 0.00 0.00 0.00 79 1001.3
20260906005919 84 268 0.0 0.0 0.00 0.00 0.00 79 1001.4
20260906005418 84 268 0.0 0.0 0.00 0.00 0.00 77 1001.3
20260906004916 85 278 0.0 0.0 0.00 0.00 0.00 75 1001.2
20260906004411 86 275 0.0 0.0 0.00 0.00 0.00 73 1001.1
20260906003907 86 257 0.0 0.0 0.00 0.00 0.00 72 1001.3
20260906003402 87 215 1.0 1.0 0.00 0.00 0.00 71 1001.2
20260906002857 87 266 0.0 0.0 0.00 0.00 0.00 70 1001.4
20260906002356 88 183 1.0 1.0 0.00 0.00 0.00 69 1001.4
20260906001852 88 263 1.0 2.0 0.00 0.00 0.00 69 1001.1
20260906001348 89 264 0.0 1.0 0.00 0.00 0.00 69 1001.4
20260906000842 89 261 1.0 4.0 0.00 0.00 0.00 67 1001.1
20260906000342 89 171 2.0 6.0 0.00 0.00 0.00 66 1001.1
20260905235837 90 262 0.0 2.0 0.00 0.00 0.00 66 1001.0
20260905235331 90 256 1.0 7.0 0.00 0.00 0.00 65 1001.0
20260905234827 90 195 1.0 4.0 0.00 0.00 0.00 65 1001.4
20260905234322 91 88 0.0 4.0 0.00 0.00 0.00 65 1001.1
20260905233817 91 191 3.0 6.0 0.00 0.00 0.00 64 1001.0
20260905233312 91 193 1.0 4.0 0.00 0.00 0.00 64 1000.9
20260905232811 91 218 1.0 2.0 0.00 0.00 0.00 64 1001.0
20260905232307 91 176 2.0 6.0 0.00 0.00 0.00 63 1001.0
20260905231803 91 148 3.0 4.0 0.00 0.00 0.00 63 1000.8
20260905231258 91 232 2.0 7.0 0.00 0.00 0.00 63 1001.0
20260905230754 91 194 3.0 7.0 0.00 0.00 0.00 62 1001.0
20260905230251 91 170 8.0 9.0 0.00 0.00 0.00 61 1001.0
20260905225746 91 23 2.0 4.0 0.00 0.00 0.00 64 1000.9
20260905225241 91 149 1.0 8.0 0.00 0.00 0.00 63 1000.9
20260905224740 91 164 4.0 7.0 0.00 0.00 0.00 63 1000.9
20260905224236 91 209 3.0 6.0 0.00 0.00 0.00 63 1001.0
20260905223732 91 240 2.0 8.0 0.00 0.00 0.00 63 1001.2
20260905223228 91 120 3.0 7.0 0.00 0.00 0.00 62 1001.4
20260905222724 91 189 3.0 8.0 0.00 0.00 0.00 63 1001.2
20260905222223 91 132 4.0 9.0 0.00 0.00 0.00 63 1001.3
20260905221719 91 196 3.0 7.0 0.00 0.00 0.00 63 1001.3
20260905221216 91 143 6.0 15.0 0.00 0.00 0.00 64 1001.3
20260905220711 91 145 4.0 9.0 0.00 0.00 0.00 64 1001.4
20260905220207 91 156 6.0 9.0 0.00 0.00 0.00 65 1001.4
20260905215706 91 194 4.0 8.0 0.00 0.00 0.00 64 1001.3
20260905215202 91 184 4.0 13.0 0.00 0.00 0.00 64 1001.4
20260905214658 91 89 6.0 9.0 0.00 0.00 0.00 64 1001.6
20260905214153 92 113 2.0 7.0 0.00 0.00 0.00 64 1001.7
20260905213648 91 121 2.0 8.0 0.00 0.00 0.00 64 1001.7
20260905213144 91 23 2.0 13.0 0.00 0.00 0.00 65 1001.8
20260905212639 91 177 3.0 7.0 0.00 0.00 0.00 67 1001.9
20260905212138 91 135 4.0 7.0 0.00 0.00 0.00 66 1002.0
20260905211633 90 117 2.0 4.0 0.00 0.00 0.00 66 1002.4
20260905211129 91 253 4.0 7.0 0.00 0.00 0.00 66 1002.3
20260905210625 90 311 1.0 7.0 0.00 0.00 0.00 68 1002.3
20260905210120 90 177 6.0 10.0 0.00 0.00 0.00 66 1002.3
20260905205618 90 153 5.0 9.0 0.00 0.00 0.00 67 1002.6
20260905205112 90 118 4.0 9.0 0.00 0.00 0.00 67 1002.6
20260905204612 90 42 0.0 4.0 0.00 0.00 0.00 67 1002.6
20260905204107 90 60 9.0 15.0 0.00 0.00 0.00 66 1002.8
20260905203602 89 359 5.0 9.0 0.00 0.00 0.00 69 1002.6
20260905203057 90 169 2.0 6.0 0.00 0.00 0.00 70 1002.8
20260905202552 89 237 0.0 4.0 0.00 0.00 0.00 69 1002.7
20260905202048 90 99 4.0 14.0 0.00 0.00 0.00 67 1002.7
20260905201543 89 121 1.0 3.0 0.00 0.00 0.00 70 1002.9
20260905201042 89 294 0.0 1.0 0.00 0.00 0.00 68 1002.9
20260905200538 89 66 1.0 3.0 0.00 0.00 0.00 69 1003.1